This demonstration page uses our WeatherBlox Daily Observations layout. Learn more.

Left ArrowRight Arrow

34.74481, -87.66753

Hourly Observations for May 19, 2020

Temp ( °F °C ) Dew Point ( °F °C ) Humidity (%) Winds ( mph kmh ) Pressure ( in mb ) Visibility ( mi km ) Precip ( " mm )
12:53 am 00:53 Mostly Cloudy 62 16.7 54 12.2 75 75 N 3 6 29.79 1009 10 16 0.00 0.00
1:53 am 01:53 Mostly Cloudy 60 15.6 56 13.3 86 86 Calm 29.78 1009 10 16 0.00 0.00
2:53 am 02:53 Clear 59 15 55 12.8 87 87 Calm 29.77 1008 10 16 0.00 0.00
3:53 am 03:53 Clear 58 14.4 54 12.2 87 87 Calm 29.77 1008 10 16 0.00 0.00
4:53 am 04:53 Clear 57 13.9 54 12.2 90 90 WNW 3 6 29.77 1008 10 16 0.00 0.00
5:53 am 05:53 Sunny 56 13.3 54 12.2 93 93 Calm 29.79 1009 10 16 0.00 0.00
6:53 am 06:53 Mostly Cloudy 59 15 56 13.3 90 90 Calm 29.81 1010 10 16 0.00 0.00
7:53 am 07:53 Cloudy 61 16.1 57 13.9 87 87 WNW 7 11 29.82 1010 10 16 0.00 0.00
8:53 am 08:53 Cloudy 63 17.2 56 13.3 78 78 WNW 5 7 29.83 1010 10 16 0.00 0.00
9:53 am 09:53 Cloudy 65 18.3 57 13.9 76 76 W 5 7 29.84 1010 10 16 0.00 0.00
10:53 am 10:53 Cloudy 69 20.6 57 13.9 66 66 NNW 6 9 29.83 1010 10 16 0.00 0.00
11:53 am 11:53 Cloudy 71 21.7 54 12.2 55 55 W 8 13 29.82 1010 10 16 0.00 0.00
12:53 pm 12:53 Cloudy 69 20.6 54 12.2 59 59 NW 7 11 29.81 1010 10 16 0.00 0.00
1:53 pm 13:53 Cloudy 69 20.6 54 12.2 59 59 WSW 8 13 29.81 1010 10 16 0.00 0.00
2:53 pm 14:53 Cloudy 68 20 54 12.2 61 61 W 8 13 29.81 1010 10 16 0.00 0.00
3:53 pm 15:53 Cloudy 68 20 55 12.8 63 63 WNW 9 15 29.81 1010 10 16 0.00 0.00
4:53 pm 16:53 Cloudy 67 19.4 55 12.8 66 66 W 7 11 29.81 1010 10 16 0.00 0.00
5:53 pm 17:53 Cloudy 67 19.4 55 12.8 66 66 W 9 15 29.81 1010 10 16 0.00 0.00
6:53 pm 18:53 Cloudy 66 18.9 55 12.8 68 68 WNW 7 11 29.82 1010 10 16 0.00 0.00
7:53 pm 19:53 Cloudy 65 18.3 56 13.3 73 73 NW 6 9 29.84 1011 10 16 0.00 0.00
8:53 pm 20:53 Mostly Clear 63 17.2 57 13.9 81 81 N 3 6 29.84 1010 10 16 0.00 0.00
9:53 pm 21:53 Mostly Clear 61 16.1 56 13.3 84 84 Calm 29.86 1011 10 16 0.00 0.00
10:53 pm 22:53 Clear 59 15 55 12.8 87 87 WNW 3 6 29.86 1011 10 16 0.00 0.00
11:53 pm 23:53 Clear 58 14.4 55 12.8 90 90 Calm 29.84 1011 10 16 0.00 0.00

Powered by AerisWeather